Change the Weather History Date:

Wednesday, October 17, 2012

  Actual Average Record
Temperature  
Mean Temperature 56 °F -  
Max Temperature 70 °F 70 °F 84 °F (2005)
Min Temperature 44 °F 47 °F 33 °F (1970)
Degree Days  
Heating Degree Days 8    
Growing Degree Days 6 (Base 50)    
Moisture  
Dew Point 46 °F    
Average Humidity 76    
Maximum Humidity 100    
Minimum Humidity 39    
Precipitation  
Precipitation 0.01 in - - ()
Sea Level Pressure  
Sea Level Pressure 29.91 in    
Wind  
Wind Speed 1 mph (SW)    
Max Wind Speed 9 mph    
Max Gust Speed -    
Visibility 9 miles    
Events      
Averages and records for this station are not official NWS values.
T = Trace of Precipitation, MM = Missing Value Source: NWS Daily Summary

Daily Weather History Graph

Daily Weather History Graph

Search for Another Location

Airport or City:

Trip Planner

Search our weather history database for the weather conditions in past years. The results will help you decide how hot, cold, wet, or windy it might be!

Date:

Astronomy

Oct. 17, 2012 Rise Set
Actual Time 7:34 AM EDT 6:46 PM EDT
Civil Twilight 7:08 AM EDT 7:12 PM EDT
Nautical Twilight 6:38 AM EDT 7:42 PM EDT
Astronomical Twilight 6:09 AM EDT 8:11 PM EDT
Moon 10:00 AM EDT (10/17) 8:27 PM EDT (10/17)
Length of Visible Light 12h 04m
Length of Day
11h 12m
Waxing Crescent, 7% of the Moon is Illuminated
Oct 17
Waxing Crescent
Oct 21
First Quarter
Oct 29
Full
Nov 6
Last Quarter
Nov 13
New

Hourly Weather History & Observations

Time (EDT) Temp. Windchill Dew Point Humidity Pressure Visibility Wind Dir Wind Speed Gust Speed Precip Events Conditions
12:53 AM 50.0 °F - 46.9 °F 89% 29.89 in 10.0 mi Calm Calm - N/A   Clear
1:53 AM 50.0 °F - 46.9 °F 89% 29.89 in 10.0 mi Calm Calm - N/A   Clear
2:53 AM 48.9 °F - 46.0 °F 90% 29.89 in 10.0 mi Calm Calm - N/A   Clear
3:53 AM 48.0 °F - 45.0 °F 89% 29.88 in 10.0 mi Calm Calm - N/A   Clear
4:53 AM 46.0 °F - 44.1 °F 93% 29.89 in 3.0 mi Calm Calm - N/A   Clear
5:20 AM 44.6 °F - 44.6 °F 100% 29.93 in 4.0 mi Calm Calm - N/A   Partly Cloudy
5:53 AM 46.0 °F - 44.1 °F 93% 29.91 in 10.0 mi Calm Calm - N/A   Clear
6:53 AM 46.0 °F 44.8 °F 44.1 °F 93% 29.92 in 10.0 mi NW 3.5 mph - N/A   Clear
7:21 AM 44.6 °F 43.1 °F 44.6 °F 100% 29.96 in 2.5 mi WNW 3.5 mph - 0.01 in   Scattered Clouds
7:37 AM 44.6 °F - 44.6 °F 100% 29.97 in 7.0 mi Calm Calm - 0.01 in   Scattered Clouds
7:53 AM 45.0 °F - 43.0 °F 93% 29.94 in 10.0 mi Calm Calm - 0.01 in   Clear
8:53 AM 46.9 °F - 45.0 °F 93% 29.96 in 5.0 mi Calm Calm - N/A   Clear
9:53 AM 50.0 °F - 46.9 °F 89% 29.97 in 10.0 mi NNW 3.5 mph - N/A   Clear
10:53 AM 55.9 °F - 48.9 °F 77% 29.96 in 10.0 mi Calm Calm - N/A   Clear
11:53 AM 62.1 °F - 46.9 °F 58% 29.96 in 10.0 mi Calm Calm - N/A   Clear
12:53 PM 66.0 °F - 48.0 °F 52% 29.94 in 10.0 mi Variable 4.6 mph - N/A   Clear
1:53 PM 69.1 °F - 46.9 °F 45% 29.90 in 10.0 mi SSW 8.1 mph - N/A   Clear
2:53 PM 69.1 °F - 44.1 °F 40% 29.88 in 10.0 mi South 9.2 mph - N/A   Clear
3:53 PM 69.1 °F - 43.0 °F 39% 29.86 in 10.0 mi SSW 8.1 mph - N/A   Clear
4:53 PM 69.1 °F - 45.0 °F 42% 29.86 in 10.0 mi SSW 4.6 mph - N/A   Clear
5:53 PM 66.9 °F - 45.0 °F 45% 29.86 in 10.0 mi South 5.8 mph - N/A   Clear
7:53 PM 59.0 °F - 46.9 °F 64% 29.88 in 10.0 mi Calm Calm - N/A   Clear
8:53 PM 55.9 °F - 46.9 °F 72% 29.89 in 10.0 mi Calm Calm - N/A   Clear
9:53 PM 55.9 °F - 46.9 °F 72% 29.90 in 10.0 mi Calm Calm - N/A   Clear
10:53 PM 54.0 °F - 46.0 °F 75% 29.89 in 10.0 mi Calm Calm - N/A   Clear
11:53 PM 53.1 °F - 46.0 °F 77% 29.87 in 10.0 mi Calm Calm - N/A   Clear